EW6762 Weather Reports


time (UTC)temp
F
wind
direction
speed
knots
gust
knots
rain 1hr
in
rain 24hr
in
rain mn
in
humidity
%
barometer
mb
20260504045334 57 175 1.7 4.3 0.00 0.04 0.00 72 1018.9
20260504044325 57 154 1.7 7.0 0.00 0.04 0.00 71 1018.9
20260504043325 57 105 2.6 6.1 0.00 0.04 0.00 70 1019.0
20260504042317 57 133 1.7 3.5 0.00 0.04 0.00 68 1018.9
20260504041335 57 155 0.9 2.6 0.00 0.04 0.00 68 1018.9
20260504040310 57 191 0.0 2.6 0.00 0.04 0.00 67 1018.7
20260504035323 57 188 0.9 2.6 0.00 0.04 0.01 66 1018.7
20260504034347 57 161 0.0 2.6 0.00 0.04 0.01 65 1018.7
20260504033348 57 157 0.9 1.7 0.00 0.04 0.01 64 1018.7
20260504032325 57 130 0.9 2.6 0.00 0.04 0.01 62 1018.8
20260504031329 58 94 0.0 1.7 0.00 0.04 0.01 60 1018.8
20260504030324 58 121 0.9 2.6 0.00 0.04 0.01 59 1018.8
20260504025321 58 80 0.9 1.7 0.00 0.04 0.01 59 1018.8
20260504024322 59 115 1.7 2.6 0.00 0.04 0.01 58 1018.7
20260504023316 59 90 0.9 1.7 0.00 0.04 0.01 57 1018.7
20260504022311 59 88 0.9 1.7 0.00 0.04 0.01 56 1018.7
20260504021331 60 55 0.0 1.7 0.00 0.04 0.01 57 1018.6
20260504020334 60 74 0.0 1.7 0.00 0.04 0.01 57 1018.6
20260504015310 60 62 0.0 1.7 0.00 0.04 0.01 56 1018.5
20260504014334 60 332 0.0 0.9 0.00 0.04 0.01 56 1018.4
20260504013311 60 331 0.0 0.9 0.00 0.04 0.01 56 1018.3
20260504012327 61 319 0.0 0.9 0.00 0.04 0.01 57 1018.1
20260504011330 61 319 0.0 0.9 0.00 0.04 0.01 57 1018.0
20260504010311 62 319 0.0 1.7 0.00 0.04 0.01 51 1017.8
20260504005309 63 306 0.0 0.9 0.00 0.04 0.01 52 1017.6
20260504004332 64 306 0.0 0.9 0.00 0.04 0.01 49 1017.5
20260504003331 64 306 0.0 0.9 0.00 0.04 0.01 48 1017.4
20260504002308 65 306 0.9 0.9 0.00 0.04 0.01 47 1017.4
20260504001326 66 306 0.0 0.0 0.00 0.04 0.01 45 1017.3
20260504000330 67 306 0.0 0.0 0.00 0.04 0.01 43 1017.2
20260503235326 69 306 0.0 0.9 0.00 0.04 0.01 41 1017.1
20260503234322 70 306 0.0 1.7 0.00 0.04 0.01 41 1017.1
20260503233326 70 286 1.7 3.5 0.00 0.04 0.01 38 1017.0
20260503232323 71 289 1.7 2.6 0.00 0.04 0.01 38 1017.0
20260503231321 72 275 0.9 4.3 0.00 0.04 0.01 37 1017.0
20260503230323 73 286 2.6 4.3 0.00 0.04 0.01 36 1017.0
20260503225315 73 257 2.6 7.0 0.00 0.04 0.01 37 1017.0
20260503224309 73 279 2.6 6.1 0.00 0.04 0.01 35 1017.0
20260503223316 74 275 4.3 7.8 0.00 0.04 0.01 35 1017.0
20260503222340 74 324 3.5 7.8 0.00 0.04 0.01 34 1017.0
20260503221312 74 252 3.5 11.3 0.00 0.04 0.01 34 1017.0
20260503220334 74 275 5.2 10.4 0.00 0.04 0.01 34 1017.0
20260503215309 73 281 4.3 8.7 0.00 0.04 0.01 35 1017.0
20260503214351 73 290 4.3 11.3 0.00 0.04 0.01 33 1017.0
20260503213324 74 284 5.2 8.7 0.00 0.04 0.01 37 1017.0
20260503212319 73 288 2.6 7.8 0.00 0.04 0.01 35 1017.0
20260503211344 74 286 3.5 7.0 0.00 0.04 0.01 34 1016.9
20260503210319 74 279 5.2 12.2 0.00 0.04 0.01 35 1016.9
20260503205338 74 242 2.6 8.7 0.00 0.04 0.01 36 1017.0
20260503204310 74 276 5.2 11.3 0.00 0.04 0.01 37 1017.2
20260503203309 73 281 4.3 9.6 0.00 0.04 0.01 37 1017.2
20260503202351 73 257 7.0 12.2 0.00 0.04 0.01 37 1017.3
20260503201326 73 255 3.5 11.3 0.00 0.04 0.01 38 1017.5
20260503200325 72 260 5.2 9.6 0.00 0.04 0.01 41 1017.6
20260503195320 73 229 4.3 11.3 0.00 0.08 0.01 39 1017.8
20260503194316 73 327 2.6 13.0 0.00 0.08 0.01 41 1017.9
20260503193335 73 287 5.2 9.6 0.00 0.08 0.01 40 1018.1
20260503192332 72 264 4.3 11.3 0.00 0.08 0.01 40 1018.1
20260503191325 72 249 6.1 9.6 0.00 0.08 0.01 40 1018.4
20260503190318 72 265 6.1 12.2 0.00 0.08 0.01 39 1018.6
20260503185315 71 306 4.3 13.0 0.00 0.16 0.01 41 1018.7
20260503184310 71 265 6.1 13.0 0.00 0.16 0.01 41 1018.7
20260503183327 71 338 4.3 10.4 0.00 0.16 0.01 40 1018.7
20260503182317 70 304 6.1 12.2 0.00 0.16 0.01 45 1019.0
20260503181320 69 272 7.0 12.2 0.00 0.16 0.01 44 1019.2
20260503180334 70 229 4.3 9.6 0.00 0.16 0.01 41 1019.1
20260503175309 69 139 3.5 10.4 0.00 0.24 0.01 47 1019.3
20260503174322 69 257 7.8 14.8 0.00 0.24 0.01 44 1019.4
20260503173320 69 234 4.3 13.0 0.00 0.24 0.01 46 1019.5
20260503172316 68 286 4.3 11.3 0.00 0.24 0.01 45 1019.6
20260503171309 68 289 4.3 13.0 0.00 0.24 0.01 48 1019.7
20260503170346 68 296 2.6 10.4 0.00 0.24 0.01 47 1019.8
20260503150345 62 298 3.5 9.6 0.00 0.71 0.01 52 1020.7
20260503140315 59 307 4.3 11.3 0.00 1.26 0.01 58 1020.5
20260503131323 56 292 2.6 8.7 0.00 1.42 0.01 64 1020.6
20260503130312 55 294 4.3 8.7 0.00 1.42 0.01 71 1020.6
20260503110349 46 309 1.7 6.1 0.00 1.73 0.01 85 1019.1
20260503090314 46 297 2.6 4.3 0.04 2.40 0.01 89 1017.9
20260503081310 47 271 2.6 4.3 0.00 2.36 0.00 90 1017.3
20260503080348 48 277 1.7 3.5 0.00 2.36 0.00 90 1017.2
20260503072309 49 265 2.6 5.2 0.00 2.36 0.00 91 1016.8
20260503071312 49 272 2.6 5.2 0.00 2.36 0.00 91 1016.6
20260503070323 49 298 2.6 6.1 0.00 2.36 0.00 92 1016.5
20260503060321 51 247 2.6 6.1 0.00 2.36 0.00 93 1016.1
20260503054318 51 269 1.7 5.2 0.00 2.36 0.00 94 1016.2
20260503053332 52 259 2.6 5.2 0.00 2.36 0.00 94 1016.1
20260503052314 52 286 1.7 4.3 0.00 2.36 0.00 94 1016.0
20260503051335 52 277 2.6 6.1 0.00 2.36 0.00 94 1016.1
20260503050329 52 269 2.6 6.1 0.00 2.36 0.00 94 1016.1